Regional Weather Roundup
Issued by NWS

Current Version | Previous Version | Text Only | Print | Product List | Glossary Off
Versions: 1 2 3 4 5 6 7 8 9 10 11 12 13 14 15 16 17 18 19 20 21 22 23 24 25 26 27 28 29 30 31 32 33 34 35 36 37 38 39 40 41 42 43 44 45 46 47 48 49 50

000
ASUS42 KFFC 132103
RWRGA
WEATHER ROUNDUP FOR GEORGIA
NATIONAL WEATHER SERVICE PEACHTREE CITY GA
400 PM EST SAT FEB 13 2016

NOTE: "FAIR" INDICATES FEW OR NO CLOUDS BELOW 12,000 FEET WITH NO
SIGNIFICANT WEATHER AND/OR OBSTRUCTIONS TO VISIBILITY.

* = USE WITH CAUTION. THE STATIONS MARKED WITH AN ASTERISK MAY NOT
REPORT WEATHER SUCH AS PRECIPITATION, FOG, OR THUNDER AND ARE NOT
QUALITY CONTROLLED BY NWS.

THE REMARK "TC" DENOTES TEMPERATURE READING IN DEGREES CELSIUS.

GAZ001>058-132200-
NORTH GEORGIA

CITY           SKY/WX    TMP DP  RH WIND       PRES   REMARKS
ATLANTA        SUNNY     42   6  22 NW13G23   30.32F
ATHENS         SUNNY     47   1  15 NW8G20    30.26F
CHAMBLEE       SUNNY     41   7  24 NW14G24   30.32S
PEACHTREE CITY SUNNY     43   8  23 NW12G17   30.34S
ROME           SUNNY     42   5  21 VRB3G18   30.37F
WEST ATLANTA   SUNNY     41   4  21 NW13      30.34F
GAINESVILLE    SUNNY     41  -3  15 NW14G24   30.28S
CARTERSVILLE   SUNNY     40   7  25 N10       30.37F WCI  33


CITY           SKY/WX    TMP DP  RH WIND       PRES   REMARKS
DALTON*        SUNNY     36   9  32 N10       30.40S WCI  28
LAWRENCEVILLE* SUNNY     41   7  24 W15G21    30.29S
MARIETTA       MOSUNNY   40   3  21 NW9       30.33S WCI  35
KENNESAW*      SUNNY     37   3  23 N12       30.36F WCI  30
BLAIRSVILLE*     N/A     33  32  94 N7G16     30.29R WCI  27
$$

GAZ059>098-102>109-132200-
CENTRAL GEORGIA

CITY           SKY/WX    TMP DP  RH WIND       PRES   REMARKS
AUGUSTA-BUSH   SUNNY     51  14  22 N9        30.25F
AUGUSTA-DANIEL SUNNY     51  14  22 N12       30.25F
COLUMBUS       SUNNY     50   4  15 N9        30.33F
MACON          SUNNY     50   7  17 N15G22    30.31R
ROBINS AFB     SUNNY     50   4  15 NW12G20   30.30S


CITY           SKY/WX    TMP DP  RH WIND       PRES   REMARKS
LAGRANGE*      SUNNY     50  15  25 NW13      30.33F
SYLVANIA*      SUNNY     52  25  34 NW13      30.26S
MILLEDGEVILLE* SUNNY     48   9  20 NW7G16    30.29S
$$

GAZ099>101-110>166-132200-
SOUTH GEORGIA

CITY           SKY/WX    TMP DP  RH WIND       PRES   REMARKS
SAVANNAH       SUNNY     53  20  27 NW13G18   30.26S
VALDOSTA       SUNNY     57  17  21 N8        30.27F
ALMA           SUNNY     55  16  21 NW10      30.26F
ST SIMONS      SUNNY     50  33  52 E8        30.25F
FT STEWART     SUNNY     54  19  25 W9G18     30.23S
ALBANY         SUNNY     55  13  18 NW10G17   30.32F
HUNTER AFB     SUNNY     53  23  30 NW7       30.23S
MOODY AFB      SUNNY     55  18  23 NW10      30.26S
BRUNSWICK      SUNNY     59  23  25 N6        30.25F


CITY           SKY/WX    TMP DP  RH WIND       PRES   REMARKS
BAINBRIDGE*    SUNNY     57  18  21 N10       30.31S
MOULTRIE*      SUNNY     54  19  26 N9        30.29F
VIDALIA*       SUNNY     54  16  22 NW9       30.26S
WAYCROSS*      SUNNY     58  23  26 NW7       30.26F
DOUGLAS*       SUNNY     55  10  16 NW9       30.28F
$$



USA.gov is the U.S. government's official web portal to all federal, state and local government web resources and services.